STARLINK-2429, 47838

Orbit data source: Space-Track

STARLINK-2429, 47838 is a payload satellite owned by SpaceX/Seattle (US) in LEO that was launched on Thu, 11 Mar 2021 UTC via an FALCON 9 launch vehicle from the Air Force Eastern Test Range (AFETR). Payload-class satellites include a variety of spacecraft equipped with specific instruments for various scientific and technological missions. These include communications satellites like Starlink; space stations such as the ISS; scientific satellites like the Hubble; Earth observation satellites from companies like Planet Labs, Umbra, and HawkEye 360; GPS; miniature CubeSats for education and research; and military/defense satellites.

Loading next visibility...
Identifier
47838, 2021-018BD
Orbit
LEO
Country
Flag of USUS
Related business
Manufacturer
SpaceX/Seattle
Mission
Operational Commercial Communications
Bus & Motor
STARLINK, Unknown motor
Mass
260 kg wet, ~248 kg dry
Launch date (UTC)
2021-03-11 (5 years ago)
Launch vehicle
FALCON 9
Launch site
Air Force Eastern Test Range (AFETR)
Object type
Payload
Rocket body
Debris
Shape & HBR
Box + 1 Pan, 10.1 m
Radar Cross Section
13.562 m², Large (>1 m²)

Expand to show TLE details & history
Last TLE update: 14 hours ago

TLE from 14 hours ago
0 STARLINK-2429
1 47838U 21018BD  26119.94655110  .00001594  00000-0  65957-4 0  9997
2 47838  53.1614   7.3553 0001363  95.2467 264.8690 15.30179580284537
Epoch: 2026-04-29T22:43Z
TLE epoch observation values (Epoch: 2026-04-29T22:43:02.015Z)
Latitude
0.00006°
Longitude
168.69673°
Altitude
476.26 km
Speed
7.629 km/s
True Right ascension
00h 29m 25s
True Declination
0° 00' 00"
Sunlit
Object was in daylight at epoch
Visualization orbit readout
Latitude
Unknown
Longitude
Unknown
Altitude
Unknown
Speed
Unknown
Apparent Right ascension
Unknown
Apparent Declination
Unknown
Sunlit
N/A
Visualization observer readout
Local Sidereal Time
20:14:14
Azimuth
Unknown
Elevation
Unknown
Doppler factor
Unknown
Orbital elements
Apogee altitude
476.466 km
Perigee altitude
474.598 km
Semi-major axis
6,853.669 km
Eccentricity
0.00014
Inclination
53.1614°
RAAN
7.3553°
Arg. of periapsis
95.2467°
True anomaly
264.85344°
Mean anomaly
264.869°
Eccentric anomaly
264.86122°
Mean motion
3.82524 °/min
Orbital period
94.11 mins
BSTAR
0.000065957
Loading maneuver chart data...
Computing Atmospheric mass density...
Loading historical data...
Loading historical data...
Loading historical data...
Loading historical data...
Loading historical data...
Loading historical data...
Loading historical data...

Documentation

Showing up to 5 results
|